Wind_Speed
7 9 10 12 12 13 14 15 15 18 21 25 26 28 29 31 33 35 37 39 41 42 44 45 46 46 46 46 46 46 46 46 47 47 47 48 48 48 48 48 47 47 47 47
7 9 11 12 14 15 17 18 18 20 22 26 27 29 31 32 33 35 37 40 42 43 45 46 47 47 47 46 47 46 46 46 46 47 47 46 47 46 46 45 45 44 44 44
7 9 12 13 15 19 19 19 21 23 24 26 27 30 31 32 34 36 39 41 43 45 46 47 47 48 48 47 47 46 45 45 46 46 46 46 46 45 44 42 41 41 41 41
8 9 13 15 17 19 20 21 22 24 25 27 29 32 34 34 36 38 41 43 45 47 47 47 48 48 48 47 46 45 45 45 45 46 46 45 44 42 41 39 38 37 37 36
11 9 12 18 20 20 22 23 23 23 25 27 28 31 36 37 39 40 42 44 46 48 48 48 49 48 47 46 45 45 44 45 45 46 44 43 42 40 38 37 35 34 33 32
13 13 14 19 21 21 24 27 25 26 27 29 30 31 34 37 38 40 43 45 47 48 48 48 49 48 47 45 45 44 44 45 45 44 43 42 40 38 36 34 33 31 30 29
15 15 17 23 23 24 25 28 28 29 30 30 31 32 34 37 39 41 43 45 48 49 49 48 48 47 46 45 44 43 44 44 44 43 42 40 38 36 34 32 30 29 27 26
19 18 21 25 27 26 26 27 28 29 30 31 32 33 35 37 40 42 44 46 48 48 48 48 48 47 45 44 43 43 43 43 43 43 42 39 37 34 33 31 29 28 26 24
22 23 25 25 27 28 27 27 28 29 30 31 32 34 36 38 41 42 44 46 47 48 48 48 48 47 45 43 43 42 42 42 42 42 41 38 35 33 32 31 28 26 23 22
22 23 27 27 27 27 27 27 28 29 30 31 32 34 36 39 41 43 45 46 47 47 47 47 47 46 44 42 42 41 41 41 42 42 40 37 35 32 31 30 28 24 21 19
25 24 26 27 28 28 28 28 29 30 30 31 33 35 37 39 42 44 45 46 46 46 47 47 46 45 43 41 41 41 40 40 41 41 39 36 34 32 30 28 27 23 19 17
26 27 27 28 28 28 28 28 29 30 31 32 34 36 38 40 43 44 44 45 45 46 47 47 46 45 43 41 40 40 39 39 40 40 37 35 34 32 30 28 25 22 19 15
26 26 27 28 28 28 29 29 30 30 31 33 35 37 39 41 43 44 44 44 45 46 46 46 45 44 42 40 40 39 39 38 39 38 35 34 33 31 29 26 24 22 19 16
27 26 26 27 28 29 29 30 31 32 33 35 36 38 40 42 43 43 43 44 44 45 46 46 45 43 41 39 38 38 38 37 38 37 34 33 32 29 27 25 23 21 20 17
28 27 28 28 28 29 30 31 32 34 35 36 38 40 41 42 43 43 43 43 44 45 45 45 44 42 40 38 37 37 36 36 36 35 33 32 30 28 26 25 23 22 19 17
29 29 30 30 31 31 32 33 34 35 37 38 39 40 41 42 42 43 43 43 43 44 44 44 43 41 39 37 35 35 35 34 34 33 32 30 29 27 26 25 24 23 20 17
31 31 31 32 33 34 34 35 37 37 39 40 41 41 42 42 42 42 42 42 43 43 43 43 42 40 38 36 34 33 33 33 32 31 30 28 27 26 25 25 24 23 21 18
33 34 34 35 35 36 36 38 39 39 40 41 42 42 42 42 42 42 41 41 41 42 42 42 41 39 37 35 33 31 31 31 30 30 29 27 26 25 25 24 24 23 22 19
36 37 37 37 38 39 39 39 40 41 42 42 42 42 42 41 41 40 40 40 40 41 41 40 39 38 36 34 32 29 29 29 28 28 27 26 25 24 24 24 24 23 22 19
39 39 40 40 40 41 42 41 42 42 43 42 42 42 40 40 40 40 40 40 39 39 39 38 37 36 34 33 30 28 27 27 25 25 25 24 24 23 23 23 23 22 21 19
42 42 43 43 43 43 43 43 43 43 44 42 41 41 40 39 40 40 39 38 38 37 37 36 35 34 33 31 29 27 25 25 23 23 22 22 22 21 21 21 21 20 20 19
45 45 45 46 45 45 45 44 44 44 44 42 41 41 40 40 40 39 38 36 36 36 35 35 34 33 32 30 28 25 24 23 21 20 20 19 20 20 19 19 19 19 18 19
48 48 49 48 47 47 47 47 46 45 45 44 43 42 41 39 39 38 36 35 35 35 34 34 33 32 31 29 26 24 22 21 19 18 17 17 17 17 17 17 17 17 17 17
52 52 52 51 49 48 48 48 48 48 47 45 44 43 41 39 38 38 36 35 34 34 33 32 32 31 29 27 25 22 20 18 17 16 15 14 14 14 15 16 16 16 15 15
55 55 54 53 51 51 50 50 49 48 47 45 44 42 41 39 38 37 35 34 33 33 31 30 30 29 28 26 23 20 18 16 15 14 13 12 11 11 12 13 14 14 14 15
55 54 53 53 52 51 50 50 49 48 46 44 43 42 41 39 37 36 34 33 32 31 30 28 28 27 26 24 22 19 17 15 13 12 11 10 9 9 9 10 11 12 12 13
55 54 53 53 52 50 49 48 47 46 44 43 42 41 40 39 37 35 34 33 32 30 29 27 27 26 25 23 21 18 16 14 12 11 9 8 7 6 6 6 7 8 9 10
Wind_Direction
298 308 308 309 314 316 316 314 312 310 311 310 318 322 324 327 328 329 330 330 330 330 330 330 329 327 325 322 320 318 317 315 313 311 309 308 306 303 299 297 293 288 284 280
299 303 311 316 315 315 316 317 317 316 313 315 320 321 324 328 328 329 330 332 332 332 331 331 330 329 327 324 322 321 319 318 316 314 313 311 309 306 303 300 295 290 287 282
307 308 317 309 308 314 316 316 315 316 316 318 320 321 324 329 329 330 332 334 334 334 333 332 331 330 328 327 325 324 323 322 320 319 317 315 313 310 307 304 299 294 290 284
303 305 306 305 307 309 313 313 315 317 319 321 323 324 325 330 331 334 335 336 335 335 334 333 333 332 330 329 328 327 327 326 324 323 321 319 316 314 311 309 304 299 293 287
305 298 302 302 304 308 313 312 315 316 318 321 324 325 326 332 333 335 335 336 336 335 335 335 334 334 332 331 330 330 330 329 328 326 325 323 320 318 315 313 309 304 298 291
306 305 301 292 301 310 313 312 319 319 321 323 324 325 327 330 332 334 335 336 337 336 336 336 336 336 335 333 333 332 332 332 331 330 329 327 325 323 320 318 314 311 304 295
310 309 299 296 304 306 308 313 316 318 320 321 323 326 328 330 333 335 336 337 338 338 337 337 337 337 336 335 335 335 335 335 335 335 334 332 331 328 326 324 320 317 311 302
297 296 287 297 301 304 309 310 311 314 316 319 322 326 329 331 334 335 336 337 338 339 338 338 338 338 338 337 337 337 337 338 338 338 338 337 335 333 331 329 325 321 317 309
290 291 294 296 299 304 307 309 311 314 316 319 323 326 329 332 334 336 336 338 339 340 339 339 340 339 339 339 339 339 339 340 341 342 342 341 340 338 337 334 331 327 321 317
291 292 293 298 301 304 306 309 312 315 317 320 323 326 329 332 334 336 337 338 339 340 341 341 341 341 340 340 340 340 341 342 344 345 346 345 343 342 341 340 338 334 330 325
295 294 294 298 302 305 307 310 313 316 318 321 324 327 330 332 334 336 338 339 340 341 342 342 342 342 342 341 342 342 343 344 346 347 348 348 348 348 347 347 347 345 343 341
293 298 300 301 304 306 307 310 313 315 318 321 324 327 330 332 334 336 338 339 341 342 342 343 343 343 343 342 343 343 344 345 347 349 350 351 351 352 353 352 353 354 352 349
294 297 298 300 303 305 307 309 312 314 318 321 324 326 329 331 334 335 337 340 341 342 343 343 343 344 344 344 344 345 346 347 349 351 352 353 355 356 356 357 356 356 356 355
295 297 298 299 302 304 306 308 311 314 317 320 323 326 328 331 333 335 337 339 341 342 343 343 344 345 345 344 345 346 348 349 351 353 355 356 357 358 359 1 360 359 359 358
295 297 299 300 301 302 305 307 310 313 316 319 322 325 328 330 332 334 336 338 340 342 343 343 344 345 345 345 345 347 349 351 353 355 357 359 360 1 3 4 3 2 2 3
294 296 298 300 301 303 305 307 309 312 315 317 320 323 326 329 331 333 335 337 339 341 343 343 344 345 345 345 346 347 350 352 354 356 358 1 4 5 7 9 9 9 10 11
294 296 297 298 300 301 303 305 307 310 312 315 319 321 324 326 329 331 333 335 337 339 341 342 343 344 344 345 345 347 350 352 354 357 360 2 5 7 9 10 12 13 15 16
292 293 295 296 298 299 301 302 304 307 309 312 315 318 321 323 326 328 330 333 335 337 339 341 343 344 344 344 345 347 349 351 353 357 -0 2 6 8 10 12 14 15 16 20
291 292 293 295 296 297 299 299 300 303 306 309 311 315 318 320 323 325 327 330 333 335 337 340 341 343 343 344 344 346 348 351 353 356 359 2 5 8 12 14 16 18 22 25
288 289 290 292 293 293 295 296 298 301 303 306 308 311 313 315 319 321 324 327 330 333 335 338 340 341 341 342 343 344 346 349 352 355 358 2 5 8 11 13 16 20 23 27
285 286 287 289 290 290 292 293 295 297 299 302 304 307 308 310 314 318 320 324 328 330 333 335 337 339 340 341 341 342 344 347 350 353 357 0 4 8 11 14 17 20 25 28
282 283 285 286 287 288 289 290 291 292 294 297 298 301 304 306 311 314 316 320 324 327 330 333 335 336 337 338 338 339 341 344 348 351 355 359 3 7 11 15 18 21 26 30
280 280 282 283 284 285 286 287 288 289 290 293 295 297 300 303 307 311 313 318 321 324 327 330 332 333 334 335 335 335 336 341 345 349 352 357 4 9 14 19 21 23 27 32
278 279 280 281 281 282 282 283 284 285 287 289 291 293 296 298 301 305 308 312 315 319 322 325 328 330 331 331 331 331 332 335 340 346 348 353 2 10 16 20 23 27 31 36
278 278 279 280 279 280 280 281 282 283 284 286 288 290 291 294 297 300 304 307 310 313 315 319 322 326 328 328 327 327 326 328 332 338 344 348 356 6 14 20 25 30 36 41
277 278 279 279 279 279 279 280 281 282 283 284 286 287 288 291 294 296 299 303 306 308 310 314 318 322 324 325 323 322 320 320 323 328 334 339 346 356 7 18 26 32 39 47
277 278 278 278 278 279 279 280 281 282 282 283 285 285 286 288 290 293 296 298 300 303 305 309 314 317 319 321 320 317 314 311 311 315 320 323 328 340 353 5 17 28 39 50
Height
5850 5850 5849 5847 5845 5843 5841 5839 5837 5834 5831 5825 5822 5818 5813 5808 5802 5796 5789 5782 5775 5767 5759 5751 5742 5734 5725 5717 5708 5700 5693 5685 5677 5670 5662 5655 5648 5641 5635 5629 5623 5619 5616 5614
5848 5847 5846 5845 5843 5841 5838 5836 5833 5831 5827 5822 5818 5813 5809 5804 5797 5791 5784 5777 5768 5760 5752 5743 5734 5725 5716 5708 5699 5690 5682 5674 5666 5657 5649 5642 5634 5627 5620 5613 5607 5603 5600 5597
5846 5845 5844 5843 5841 5838 5836 5833 5830 5827 5824 5818 5814 5808 5803 5799 5792 5786 5778 5770 5762 5753 5744 5735 5726 5717 5708 5698 5690 5681 5672 5663 5654 5646 5637 5629 5621 5613 5606 5599 5593 5588 5584 5581
5844 5844 5842 5842 5838 5836 5833 5830 5827 5823 5818 5814 5809 5803 5797 5793 5786 5779 5772 5764 5755 5746 5737 5728 5718 5709 5699 5690 5681 5672 5663 5654 5645 5636 5627 5618 5609 5601 5593 5586 5580 5575 5571 5567
5842 5841 5840 5837 5834 5832 5829 5826 5823 5819 5815 5810 5805 5799 5791 5786 5780 5773 5765 5757 5749 5739 5730 5721 5711 5701 5692 5682 5673 5664 5655 5645 5636 5626 5617 5608 5599 5591 5583 5576 5569 5564 5559 5555
5839 5838 5837 5834 5831 5829 5826 5821 5818 5814 5810 5805 5801 5796 5790 5782 5775 5768 5760 5751 5742 5733 5723 5714 5704 5694 5685 5675 5666 5657 5648 5638 5628 5618 5608 5599 5590 5582 5574 5567 5560 5554 5550 5546
5836 5834 5833 5829 5827 5825 5823 5819 5814 5809 5805 5801 5796 5791 5785 5778 5770 5763 5754 5746 5736 5727 5717 5707 5698 5688 5678 5669 5660 5650 5641 5631 5621 5611 5601 5592 5583 5574 5567 5560 5553 5547 5542 5538
5832 5830 5830 5825 5822 5820 5818 5814 5809 5805 5801 5796 5791 5785 5779 5772 5765 5757 5749 5740 5731 5721 5711 5701 5692 5682 5673 5663 5654 5645 5635 5626 5616 5605 5595 5586 5577 5569 5561 5554 5547 5541 5535 5531
5829 5827 5824 5821 5817 5814 5812 5808 5804 5800 5796 5791 5785 5780 5774 5767 5760 5752 5743 5735 5725 5715 5706 5696 5686 5676 5667 5658 5649 5640 5630 5621 5611 5601 5591 5581 5572 5564 5556 5549 5542 5536 5530 5526
5824 5822 5818 5815 5812 5809 5806 5803 5799 5795 5790 5785 5780 5775 5768 5762 5754 5746 5738 5729 5720 5710 5701 5691 5681 5671 5662 5653 5644 5635 5626 5617 5607 5597 5587 5577 5568 5560 5553 5545 5538 5532 5526 5522
5818 5816 5813 5810 5807 5804 5800 5797 5793 5789 5784 5780 5775 5769 5763 5756 5749 5741 5733 5724 5715 5705 5696 5686 5676 5667 5658 5649 5640 5631 5622 5613 5604 5594 5584 5575 5566 5558 5550 5543 5536 5530 5525 5520
5813 5810 5807 5804 5801 5798 5795 5791 5788 5783 5779 5774 5769 5763 5757 5750 5743 5735 5727 5719 5710 5700 5691 5682 5672 5663 5654 5645 5636 5628 5619 5610 5601 5592 5582 5573 5565 5557 5549 5542 5536 5530 5525 5521
5807 5805 5802 5798 5795 5792 5789 5785 5781 5778 5774 5769 5763 5758 5752 5745 5737 5730 5722 5713 5705 5696 5687 5678 5669 5659 5650 5642 5633 5625 5616 5608 5599 5590 5581 5572 5564 5556 5549 5542 5536 5531 5526 5522
5801 5798 5796 5793 5790 5786 5783 5779 5775 5772 5767 5763 5757 5752 5746 5739 5732 5724 5716 5709 5700 5692 5683 5674 5665 5656 5647 5639 5631 5623 5615 5606 5598 5589 5580 5572 5564 5557 5550 5543 5537 5532 5527 5523
5794 5792 5789 5787 5784 5780 5777 5773 5769 5765 5761 5756 5751 5745 5739 5733 5726 5719 5711 5704 5696 5688 5679 5670 5662 5653 5645 5637 5629 5621 5613 5605 5597 5589 5580 5573 5565 5558 5551 5545 5539 5533 5529 5525
5787 5785 5782 5779 5777 5773 5770 5766 5763 5758 5754 5749 5744 5739 5733 5727 5720 5713 5706 5699 5692 5684 5676 5667 5659 5651 5642 5635 5627 5620 5613 5605 5597 5589 5582 5574 5567 5560 5554 5548 5541 5536 5531 5527
5780 5778 5775 5772 5769 5766 5763 5759 5755 5751 5747 5742 5737 5732 5726 5721 5715 5708 5701 5694 5687 5680 5672 5664 5656 5648 5640 5633 5626 5619 5612 5605 5598 5590 5583 5576 5569 5563 5557 5551 5545 5539 5534 5529
5771 5769 5767 5764 5761 5758 5755 5751 5747 5743 5739 5735 5730 5725 5720 5714 5709 5703 5697 5690 5683 5676 5668 5661 5653 5645 5638 5631 5624 5618 5611 5605 5598 5591 5584 5578 5572 5566 5560 5554 5548 5542 5537 5532
5762 5759 5757 5755 5752 5749 5746 5742 5739 5735 5731 5727 5722 5718 5713 5708 5703 5697 5691 5685 5679 5672 5665 5657 5650 5643 5636 5629 5623 5617 5611 5605 5599 5592 5586 5580 5574 5568 5563 5557 5552 5546 5541 5536
5752 5749 5747 5745 5742 5739 5736 5733 5730 5726 5723 5719 5714 5710 5706 5701 5696 5691 5685 5680 5674 5667 5661 5654 5647 5640 5634 5627 5621 5616 5610 5605 5599 5593 5588 5582 5577 5571 5566 5561 5556 5551 5546 5541
5740 5738 5736 5734 5731 5728 5726 5723 5720 5717 5713 5709 5706 5702 5698 5693 5688 5684 5679 5675 5669 5663 5656 5650 5644 5638 5631 5625 5620 5615 5610 5605 5599 5594 5589 5584 5579 5574 5570 5565 5560 5555 5551 5547
5728 5727 5724 5722 5720 5717 5714 5712 5710 5706 5703 5699 5696 5693 5689 5685 5681 5676 5673 5669 5664 5658 5652 5646 5640 5634 5629 5623 5618 5613 5609 5604 5599 5595 5590 5586 5581 5577 5573 5569 5564 5560 5556 5552
5715 5713 5711 5709 5707 5705 5702 5700 5698 5695 5692 5690 5686 5683 5680 5676 5672 5669 5665 5662 5657 5652 5647 5642 5636 5631 5626 5621 5616 5612 5608 5603 5599 5595 5591 5587 5584 5580 5576 5572 5568 5564 5560 5557
5700 5698 5697 5695 5693 5691 5689 5687 5684 5683 5681 5679 5676 5673 5670 5667 5664 5661 5657 5654 5651 5646 5642 5637 5632 5627 5622 5618 5614 5610 5606 5602 5599 5595 5592 5589 5585 5582 5579 5575 5572 5568 5565 5561
5683 5682 5681 5679 5678 5676 5674 5672 5671 5669 5668 5666 5665 5662 5660 5658 5655 5652 5649 5646 5643 5639 5636 5632 5628 5623 5619 5614 5610 5607 5604 5601 5598 5595 5592 5589 5587 5584 5581 5578 5575 5572 5569 5566
5666 5665 5664 5663 5662 5661 5659 5658 5656 5656 5655 5654 5652 5651 5649 5647 5645 5642 5640 5638 5635 5632 5629 5625 5622 5618 5614 5610 5607 5604 5601 5599 5596 5594 5591 5589 5587 5585 5583 5581 5579 5576 5574 5571
5650 5648 5648 5647 5646 5645 5644 5643 5643 5642 5642 5641 5640 5639 5637 5636 5634 5632 5631 5629 5627 5625 5622 5619 5616 5613 5609 5606 5603 5600 5598 5596 5594 5592 5590 5589 5587 5586 5584 5583 5581 5580 5578 5576